This is the latest recevied weather packets stored in our database for station/object KC2BRB-1. If no packets are shown the sender has not sent any weather packets the latest 10 day(s).
| Time | Temp. | Humidity | Pressure | Rain* | Wind** | Luminosity | Snow |
|---|---|---|---|---|---|---|---|
| 1777687958 | 22.22° C | 89% | 1009 hPa | 33.27 mm | - | - | - |
| 1777687658 | 22.22° C | 89% | 1009 hPa | 33.27 mm | - | - | - |
| 1777687358 | 22.22° C | 89% | 1008.8 hPa | 33.27 mm | - | - | - |
| 1777687058 | 22.22° C | 89% | 1008.8 hPa | 33.27 mm | - | - | - |
| 1777687004 | 22.22° C | 87% | 1008.8 hPa | 33.27 mm | - | - | - |
| 1777686757 | 22.22° C | 87% | 1008.8 hPa | 33.27 mm | - | - | - |
| 1777686458 | 22.22° C | 87% | 1008.8 hPa | 33.27 mm | - | - | - |
| 1777686158 | 23.89° C | 84% | 1008.8 hPa | 28.45 mm | - | - | - |
| 1777686107 | 23.89° C | 84% | 1008.8 hPa | 28.45 mm | - | - | - |
| 1777685858 | 23.89° C | 84% | 1008.8 hPa | 28.45 mm | - | - | - |
| 1777685804 | 25° C | 78% | 1008.6 hPa | 10.92 mm | - | - | - |
| 1777685558 | 25° C | 78% | 1008.6 hPa | 10.92 mm | - | - | - |
| 1777685259 | 25° C | 78% | 1008.6 hPa | 10.92 mm | - | - | - |
| 1777685168 | 25.56° C | 70% | 1008.6 hPa | 0 mm | - | - | - |
| 1777684958 | 25.56° C | 70% | 1008.6 hPa | 0 mm | - | - | - |
| 1777684658 | 25.56° C | 70% | 1008.6 hPa | 0 mm | - | - | - |
| 1777684358 | 26.11° C | 69% | 1008.6 hPa | 0 mm | - | - | - |
| 1777684305 | 26.67° C | 66% | 1008.3 hPa | 0 mm | - | - | - |
| 1777684058 | 26.11° C | 69% | 1008.6 hPa | 0 mm | - | - | - |
| 1777683758 | 26.67° C | 66% | 1008.3 hPa | 0 mm | - | - | - |
| 1777683704 | 26.67° C | 66% | 1008.3 hPa | 0 mm | - | - | - |
| 1777683458 | 26.67° C | 66% | 1008.3 hPa | 0 mm | - | - | - |
| 1777683158 | 26.67° C | 64% | 1008.3 hPa | 0 mm | - | - | - |
| 1777682858 | 26.67° C | 64% | 1008.3 hPa | 0 mm | - | - | - |
| 1777682558 | 27.22° C | 62% | 1008.1 hPa | 0 mm | - | - | - |
* Rain latest hour (hover to see other rain measurements)
** Current wind speed in m/s (hover to see current wind gust speed)